Flag for U.S.A. Weather past 2 weeks in Macon, Georgia, U.S.A.

Now
73 °F

Clear.


Feels Like: 69 °F
Forecast: 71 / 92 °F
Wind: No wind

Location: Middle Georgia Regional Airport

Current Time: Sep 2, 2014 at 3:25:19 AM

Latest Report: Sep 2, 2014 at 2:53 AM


Visibility: 10 mi

Pressure: 30.05 "Hg

Humidity: 97%

Dew point: 72 °F

Location of MaconLocation

Historic Weather in Macon — Graph

°F

Macon temperature yesterday

Maximum temperature yesterday: 95 °F (at 3:53 PM)
Minimum temperature yesterday: 71 °F (at 5:53 AM)
Average temperature yesterday: 80 °F

Past Weeks' High & Low Weather Summary

 TemperatureHumidityPressure
High98 °F (Aug 21, 4:53 PM)100% (Aug 18, 2:53 AM)30.16 "Hg (Aug 18, 2:53 AM)
Low59 °F (Aug 28, 6:53 AM)22% (Aug 28, 3:53 PM)29.84 "Hg (Aug 24, 4:53 AM)
Average79 °F73%30.01 "Hg
* Reported Aug 18 1:53 AM — Sep 2 1:53 AM, Macon, Weather by CustomWeather, © 2014

Note: Actual official high and low records may vary slightly from our data, if they occured in-between our weather recording intervals... More about our weather records

Advertising

Macon weather history for previous 24 hours

 ConditionsComfort  
Time TempWeatherWind HumidityBarometerVisibility
1:53 AM
Sep 2
73 °FClear.No wind100%30.06 "Hg10 mi
12:53 AM73 °FClear.No wind100%30.05 "Hg10 mi
11:53 PM
Sep 1
74 °FClear.3 mph100%30.07 "Hg10 mi
10:53 PM73 °FLight rain. Passing clouds.5 mph100%30.10 "Hg10 mi
9:53 PM73 °FLight rain. Passing clouds.7 mph100%30.12 "Hg10 mi
8:53 PM75 °FLight rain. Broken clouds.7 mph96%30.11 "Hg10 mi
7:53 PM76 °FMostly cloudy.17 mph88%30.05 "Hg10 mi
6:53 PM91 °FBroken clouds.5 mph54%30.00 "Hg10 mi
5:53 PM95 °FScattered clouds.No wind43%29.99 "Hg10 mi
4:53 PM95 °FSunny.3 mph43%30.00 "Hg10 mi
3:53 PM95 °FPassing clouds.5 mph44%30.02 "Hg10 mi
2:53 PM92 °FBroken clouds.No wind51%30.05 "Hg10 mi
1:53 PM93 °FPassing clouds.8 mph50%30.07 "Hg10 mi
12:53 PM93 °FSunny.5 mph44%30.08 "Hg10 mi
11:53 AM89 °FSunny.5 mph63%30.11 "Hg10 mi
10:53 AM85 °FSunny.No wind70%30.11 "Hg10 mi
9:53 AM81 °FSunny.No wind82%30.12 "Hg10 mi
8:53 AM75 °FSunny.No wind96%30.11 "Hg10 mi
7:53 AM71 °FClear.No wind100%30.11 "Hg10 mi
6:53 AM71 °FClear.No wind100%30.09 "Hg10 mi
5:53 AM71 °FClear.No wind100%30.07 "Hg10 mi
4:53 AM72 °FClear.No wind100%30.06 "Hg10 mi
3:53 AM72 °FClear.No wind100%30.06 "Hg10 mi
Weather by CustomWeather, © 2014

See weather overviewHow to use our weather pages